GW2402 Weather Reports


time (UTC)temp
C
wind
direction
speed
KPH
gust
KPH
rain 1hr
cm
rain 24hr
cm
rain mn
cm
humidity
%
barometer
mb
20260510044543 23 0 0.0 0.0 0.00 0.20 0.20 84 1010.6
20260510043050 23 0 0.0 0.0 0.00 0.20 0.20 84 1010.7
20260510041546 23 0 0.0 0.0 0.00 0.20 0.20 84 1010.6
20260510040053 23 0 0.0 0.0 0.00 0.20 0.20 84 1010.4
20260510034548 24 0 0.0 0.0 0.00 0.20 0.20 83 1010.4
20260510033055 24 0 0.0 0.0 0.00 0.20 0.20 82 1010.2
20260510031551 25 0 0.0 0.0 0.00 0.20 0.20 81 1009.9
20260510030046 25 0 0.0 0.0 0.00 0.20 0.20 80 1009.5
20260510024548 26 0 0.0 0.0 0.00 0.20 0.20 79 1009.3
20260510023046 26 0 0.0 0.0 0.00 0.20 0.20 78 1009.3
20260510021638 26 0 0.0 0.0 0.00 0.20 0.20 78 1009.3
20260510020050 26 0 0.0 0.0 0.00 0.20 0.20 78 1009.0
20260510014555 27 0 0.0 0.0 0.00 0.20 0.20 77 1008.8
20260510013057 27 0 0.0 0.0 0.00 0.20 0.20 77 1008.9
20260510011546 27 0 0.0 0.0 0.00 0.20 0.20 75 1008.5
20260510010053 27 0 0.0 0.0 0.00 0.20 0.20 74 1008.2
20260510004541 28 0 0.0 0.0 0.00 0.20 0.20 73 1008.2
20260510003048 28 0 0.0 0.0 0.00 0.20 0.20 72 1008.0
20260510001547 28 0 0.0 0.0 0.00 0.20 0.20 72 1007.9
20260510000048 28 0 0.0 0.0 0.00 0.20 0.20 71 1008.0
20260509234545 28 0 0.0 0.0 0.00 0.20 0.20 70 1008.0
20260509233045 28 0 0.0 0.0 0.00 0.20 0.20 69 1007.7
20260509231550 28 0 0.0 0.0 0.00 0.20 0.20 68 1007.7
20260509230050 28 0 0.0 0.0 0.00 0.20 0.20 67 1007.9
20260509224547 28 0 0.0 0.0 0.00 0.20 0.20 66 1008.0
20260509223048 28 0 0.0 0.0 0.00 0.20 0.20 63 1007.9
20260509221550 27 0 0.0 0.0 0.00 0.20 0.20 65 1008.0
20260509220041 27 0 0.0 0.0 0.00 0.20 0.20 65 1007.7
20260509214549 26 0 0.0 0.0 0.00 0.20 0.20 68 1008.1
20260509213104 26 0 0.0 1.6 0.00 0.20 0.20 68 1008.4
20260509211552 25 0 1.6 8.0 0.05 0.20 0.20 70 1008.7
20260509210050 24 339 0.0 4.8 0.20 0.20 0.20 80 1008.6
20260509204549 23 0 0.0 1.6 0.20 0.20 0.20 83 1008.5
20260509203049 22 352 1.6 8.0 0.20 0.20 0.20 88 1008.7
20260509201547 23 31 0.0 4.8 0.15 0.15 0.15 80 1009.2
20260509200053 26 120 0.0 3.2 0.00 0.00 0.00 75 1009.5
20260509194555 29 0 0.0 1.6 0.00 0.00 0.00 77 1008.9
20260509193045 30 0 0.0 3.2 0.00 0.00 0.00 69 1009.1
20260509191545 31 219 0.0 1.6 0.00 0.00 0.00 71 1009.2
20260509190048 30 0 0.0 3.2 0.00 0.00 0.00 73 1009.3
20260509184557 30 104 0.0 3.2 0.00 0.00 0.00 72 1009.6
20260509183054 30 0 0.0 3.2 0.00 0.00 0.00 73 1009.9
20260509181552 30 255 0.0 4.8 0.00 0.00 0.00 74 1010.1
20260509180055 29 0 0.0 6.4 0.00 0.00 0.00 74 1010.3
20260509174542 29 0 1.6 4.8 0.00 0.00 0.00 75 1010.6
20260509173102 29 0 0.0 4.8 0.00 0.00 0.00 75 1011.0
20260509171547 29 0 0.0 1.6 0.00 0.00 0.00 77 1010.8
20260509170047 28 0 0.0 6.4 0.00 0.00 0.00 79 1010.7
20260509164551 27 0 0.0 4.8 0.00 0.00 0.00 80 1011.0
20260509163052 27 0 0.0 4.8 0.00 0.00 0.00 81 1011.1
20260509161559 27 270 0.0 4.8 0.00 0.00 0.00 81 1011.0
20260509160047 26 285 0.0 3.2 0.00 0.00 0.00 84 1010.8
20260509154552 26 0 0.0 1.6 0.00 0.00 0.00 85 1010.9
20260509153059 26 336 0.0 1.6 0.00 0.00 0.00 87 1010.9
20260509151552 25 0 0.0 4.8 0.00 0.00 0.00 90 1010.9
20260509150042 24 0 0.0 4.8 0.00 0.00 0.00 93 1011.1
20260509144551 23 283 0.0 1.6 0.00 0.00 0.00 95 1010.9
20260509143047 23 0 0.0 1.6 0.00 0.00 0.00 96 1010.7
20260509141546 22 0 0.0 1.6 0.00 0.00 0.00 96 1010.3
20260509140103 22 0 0.0 1.6 0.00 0.00 0.00 96 1010.8
20260509134541 22 0 0.0 0.0 0.00 0.00 0.00 95 1010.8
20260509133048 22 0 0.0 0.0 0.00 0.00 0.00 96 1010.9
20260509131547 22 0 0.0 1.6 0.00 0.00 0.00 96 1011.0
20260509130051 22 0 0.0 1.6 0.00 0.00 0.00 96 1010.4
20260509124551 22 0 0.0 0.0 0.00 0.00 0.00 95 1010.0
20260509123045 22 0 0.0 0.0 0.00 0.00 0.00 96 1010.3
20260509121548 22 0 0.0 0.0 0.00 0.00 0.00 95 1010.3
20260509120053 22 0 0.0 0.0 0.00 0.00 0.00 95 1010.5
20260509114546 22 0 0.0 0.0 0.00 0.00 0.00 95 1010.5
20260509113046 22 0 0.0 0.0 0.00 0.00 0.00 95 1011.0
20260509111541 22 0 0.0 0.0 0.00 0.00 0.00 95 1011.0
20260509110039 22 89 0.0 1.6 0.00 0.00 0.00 95 1011.0
20260509104553 22 0 0.0 0.0 0.00 0.00 0.00 95 1011.4
20260509103052 22 0 0.0 0.0 0.00 0.00 0.00 95 1011.3
20260509101546 22 0 0.0 0.0 0.00 0.00 0.00 95 1011.0
20260509100043 22 0 0.0 0.0 0.00 0.00 0.00 95 1010.2
20260509094555 22 0 0.0 0.0 0.00 0.00 0.00 95 1010.1
20260509093047 22 0 0.0 0.0 0.00 0.00 0.00 95 1010.1
20260509091553 22 0 0.0 0.0 0.00 0.00 0.00 94 1009.9
20260509090054 22 0 0.0 0.0 0.00 0.00 0.00 94 1009.8
20260509084547 22 0 0.0 0.0 0.00 0.00 0.00 94 1010.1
20260509083041 22 0 0.0 0.0 0.00 0.00 0.00 93 1010.1
20260509081547 22 0 0.0 0.0 0.00 0.00 0.00 93 1010.7
20260509080051 22 0 0.0 0.0 0.00 0.00 0.00 93 1010.3
20260509074605 22 0 0.0 0.0 0.00 0.00 0.00 92 1010.2
20260509073058 22 0 0.0 0.0 0.00 0.00 0.00 92 1010.4
20260509071545 22 0 0.0 0.0 0.00 0.00 0.00 92 1010.6
20260509070044 22 0 0.0 0.0 0.00 0.00 0.00 92 1010.5
20260509064543 22 0 0.0 0.0 0.00 0.00 0.00 92 1010.2
20260509063058 22 0 0.0 1.6 0.00 0.00 0.00 92 1010.4
20260509061541 22 0 0.0 1.6 0.00 0.00 0.00 91 1010.2
20260509060059 22 0 0.0 3.2 0.00 0.00 0.00 91 1009.9
20260509054548 22 0 0.0 9.7 0.00 0.00 0.00 90 1010.2
20260509053057 22 0 0.0 1.6 0.00 0.00 0.00 90 1010.0
20260509051547 23 0 0.0 0.0 0.00 0.00 0.00 90 1009.6
20260509050044 23 0 0.0 0.0 0.00 0.00 0.00 89 1009.8